Weather History for KO22 - April, 2014

Change the Weather History Date:

Wednesday, April 9, 2014

  Actual Average (KMOD) Record (KMOD)
Temperature  
Mean Temperature 60 °F -  
Max Temperature 77 °F 73 °F 95 °F (1989)
Min Temperature 44 °F 48 °F 32 °F (1999)
Degree Days  
Heating Degree Days 4 5  
Month to date heating degree days 52  
Since 1 July heating degree days 2057  
Cooling Degree Days 0 1  
Month to date cooling degree days 5  
Year to date cooling degree days 10  
Growing Degree Days 10 (Base 50)    
Moisture  
Dew Point 44 °F    
Average Humidity 58    
Maximum Humidity 88    
Minimum Humidity 27    
Precipitation  
Precipitation 0.00 in 0.04 in 0.79 in (1952)
Month to date precipitation 0.35  
Year to date precipitation 7.38  
Snow  
Snow 0.00 in - - ()
Month to date snowfall  
Since 1 July snowfall  
Snow Depth -    
Sea Level Pressure  
Sea Level Pressure 30.06 in    
Wind  
Wind Speed 2 mph (SW)    
Max Wind Speed 9 mph    
Max Gust Speed -    
Visibility 10 miles    
Events      
T = Trace of Precipitation, MM = Missing Value Source: NWS Daily Summary

Daily Weather History Graph

Daily Weather History Graph

Search for Another Location

Airport or City:

Trip Planner

Search our weather history database for the weather conditions in past years. The results will help you decide how hot, cold, wet, or windy it might be!

Date:

Astronomy

Apr. 09, 2014 Rise Set
Actual Time 6:34 AM PDT 7:32 PM PDT
Civil Twilight 6:07 AM PDT 7:59 PM PDT
Nautical Twilight 5:35 AM PDT 8:31 PM PDT
Astronomical Twilight 5:02 AM PDT 9:04 PM PDT
Moon 2:29 PM PDT (4/9) 3:21 AM PDT (4/9)
Length of Visible Light 13h 51m
Length of Day
12h 57m
Waxing Gibbous, 72% of the Moon is Illuminated
Apr 9
Waxing Gibbous
Apr 15
Full
Apr 22
Last Quarter
Apr 28
New
May 6
First Quarter

Hourly Weather History & Observations

Time (PDT) Temp. Dew Point Humidity Pressure Visibility Wind Dir Wind Speed Gust Speed Precip Events Conditions
12:15 AM 51.8 °F 42.8 °F 71% 30.09 in 10.0 mi NNE 3.5 mph - N/A   Clear
12:55 AM 50.0 °F 41.0 °F 71% 30.09 in 10.0 mi Calm Calm - N/A   Partly Cloudy
1:15 AM 50.0 °F 41.0 °F 71% 30.08 in 10.0 mi Calm Calm - N/A   Clear
1:35 AM 50.0 °F 41.0 °F 71% 30.08 in 10.0 mi Calm Calm - N/A   Clear
1:55 AM 48.2 °F 42.8 °F 82% 30.08 in 10.0 mi NE 3.5 mph - N/A   Clear
2:15 AM 48.2 °F 41.0 °F 76% 30.07 in 10.0 mi Calm Calm - N/A   Partly Cloudy
2:35 AM 48.2 °F 41.0 °F 76% 30.07 in 10.0 mi Calm Calm - N/A   Partly Cloudy
2:55 AM 48.2 °F 41.0 °F 76% 30.07 in 6.0 mi Calm Calm - N/A   Clear
3:15 AM 48.2 °F 41.0 °F 76% 30.06 in 5.0 mi Calm Calm - N/A   Clear
3:35 AM 48.2 °F 41.0 °F 76% 30.06 in 10.0 mi Calm Calm - N/A   Clear
3:55 AM 48.2 °F 41.0 °F 76% 30.06 in 9.0 mi Calm Calm - N/A   Clear
4:15 AM 46.4 °F 41.0 °F 81% 30.06 in 6.0 mi Calm Calm - N/A   Clear
4:35 AM 46.4 °F 41.0 °F 81% 30.06 in 10.0 mi Calm Calm - N/A   Clear
4:55 AM 46.4 °F 41.0 °F 81% 30.06 in 7.0 mi Calm Calm - N/A   Clear
5:15 AM 46.4 °F 41.0 °F 81% 30.06 in 8.0 mi Calm Calm - N/A   Clear
5:35 AM 46.4 °F 41.0 °F 81% 30.06 in 9.0 mi Calm Calm - N/A   Clear
5:55 AM 46.4 °F 41.0 °F 81% 30.07 in 8.0 mi Calm Calm - N/A   Clear
6:15 AM 44.6 °F 41.0 °F 87% 30.07 in 8.0 mi Calm Calm - N/A   Clear
6:35 AM 46.4 °F 41.0 °F 81% 30.07 in 8.0 mi Calm Calm - N/A   Clear
6:55 AM 46.4 °F 41.0 °F 81% 30.08 in 8.0 mi Calm Calm - N/A   Clear
7:15 AM 48.2 °F 41.0 °F 76% 30.08 in 7.0 mi Calm Calm - N/A   Clear
7:35 AM 50.0 °F 42.8 °F 76% 30.08 in 9.0 mi Calm Calm - N/A   Clear
7:55 AM 55.4 °F 44.6 °F 67% 30.08 in 8.0 mi Calm Calm - N/A   Clear
8:15 AM 59.0 °F 44.6 °F 59% 30.09 in 9.0 mi Calm Calm - N/A   Clear
8:35 AM 64.4 °F 46.4 °F 52% 30.09 in 9.0 mi Calm Calm - N/A   Clear
8:55 AM 66.2 °F 41.0 °F 40% 30.09 in 10.0 mi Calm Calm - N/A   Clear
9:15 AM 66.2 °F 39.2 °F 37% 30.09 in 9.0 mi Calm Calm - N/A   Clear
9:35 AM 68.0 °F 37.4 °F 33% 30.09 in 10.0 mi SSE 3.5 mph - N/A   Clear
9:55 AM 71.6 °F 39.2 °F 31% 30.09 in 10.0 mi Calm Calm - N/A   Clear
10:15 AM 73.4 °F 39.2 °F 29% 30.09 in 10.0 mi SSW 3.5 mph - N/A   Clear
10:35 AM 73.4 °F 39.2 °F 29% 30.10 in 10.0 mi SSW 4.6 mph - N/A   Clear
10:55 AM 73.4 °F 39.2 °F 29% 30.10 in 10.0 mi SSW 9.2 mph - N/A   Clear
11:15 AM 73.4 °F 37.4 °F 27% 30.09 in 10.0 mi SSE 4.6 mph - N/A   Clear
11:35 AM 75.2 °F 39.2 °F 27% 30.09 in 10.0 mi SSW 5.8 mph - N/A   Clear
11:55 AM 75.2 °F 41.0 °F 29% 30.08 in 10.0 mi SE 3.5 mph - N/A   Clear
12:15 PM 75.2 °F 44.6 °F 34% 30.08 in 10.0 mi South 5.8 mph - N/A   Clear
12:35 PM 75.2 °F 41.0 °F 29% 30.07 in 10.0 mi SW 8.1 mph - N/A   Clear
12:55 PM 77.0 °F 44.6 °F 32% 30.07 in 10.0 mi SSW 5.8 mph - N/A   Clear
1:15 PM 77.0 °F 46.4 °F 34% 30.06 in 10.0 mi SSW 5.8 mph - N/A   Clear
1:35 PM 75.2 °F 46.4 °F 36% 30.06 in 10.0 mi South 5.8 mph - N/A   Clear
1:55 PM 77.0 °F 48.2 °F 36% 30.05 in 10.0 mi SSW 6.9 mph - N/A   Clear
2:15 PM 75.2 °F 50.0 °F 41% 30.05 in 10.0 mi WSW 8.1 mph - N/A   Clear
2:35 PM 75.2 °F 48.2 °F 38% 30.05 in 10.0 mi SSW 4.6 mph - N/A   Clear
2:55 PM 75.2 °F 44.6 °F 34% 30.05 in 10.0 mi SSW 4.6 mph - N/A   Clear
3:15 PM 75.2 °F 46.4 °F 36% 30.05 in 10.0 mi West 5.8 mph - N/A   Clear
3:35 PM 77.0 °F 42.8 °F 29% 30.04 in 10.0 mi SW 8.1 mph - N/A   Clear
3:55 PM 75.2 °F 46.4 °F 36% 30.04 in 10.0 mi WSW 3.5 mph - N/A   Clear
4:15 PM 75.2 °F 46.4 °F 36% 30.03 in 10.0 mi Calm Calm - N/A   Clear
4:35 PM 77.0 °F 48.2 °F 36% 30.03 in 10.0 mi West 3.5 mph - N/A   Clear
4:55 PM 75.2 °F 46.4 °F 36% 30.02 in 10.0 mi West 4.6 mph - N/A   Clear
5:15 PM 75.2 °F 44.6 °F 34% 30.02 in 10.0 mi West 5.8 mph - N/A   Clear
5:35 PM 75.2 °F 44.6 °F 34% 30.02 in 10.0 mi WSW 6.9 mph - N/A   Clear
5:55 PM 73.4 °F 44.6 °F 36% 30.02 in 10.0 mi SW 4.6 mph - N/A   Clear
6:15 PM 73.4 °F 46.4 °F 38% 30.01 in 10.0 mi WSW 4.6 mph - N/A   Clear
6:55 PM 68.0 °F 46.4 °F 46% 30.01 in 10.0 mi West 3.5 mph - N/A   Clear
7:15 PM 64.4 °F 48.2 °F 56% 30.02 in 10.0 mi Calm Calm - N/A   Clear
7:35 PM 62.6 °F 48.2 °F 59% 30.02 in 10.0 mi NE 4.6 mph - N/A   Clear
7:55 PM 59.0 °F 48.2 °F 67% 30.02 in 10.0 mi Calm Calm - N/A   Clear
8:15 PM 59.0 °F 48.2 °F 67% 30.03 in 10.0 mi NE 3.5 mph - N/A   Clear
8:35 PM 57.2 °F 48.2 °F 72% 30.04 in 10.0 mi Calm Calm - N/A   Clear
8:55 PM 57.2 °F 48.2 °F 72% 30.04 in 10.0 mi NE 3.5 mph - N/A   Clear
9:15 PM 57.2 °F 48.2 °F 72% 30.04 in 10.0 mi Calm Calm - N/A   Clear
9:35 PM 55.4 °F 48.2 °F 77% 30.05 in 10.0 mi Calm Calm - N/A   Clear
9:55 PM 53.6 °F 48.2 °F 82% 30.05 in 10.0 mi Calm Calm - N/A   Clear
10:15 PM 53.6 °F 46.4 °F 77% 30.04 in 10.0 mi Calm Calm - N/A   Clear
10:35 PM 53.6 °F 48.2 °F 82% 30.05 in 10.0 mi Calm Calm - N/A   Clear
10:55 PM 51.8 °F 48.2 °F 88% 30.05 in 10.0 mi Calm Calm - N/A   Clear
11:15 PM 50.0 °F 46.4 °F 87% 30.05 in 10.0 mi Calm Calm - N/A   Clear
11:35 PM 50.0 °F 46.4 °F 87% 30.05 in 10.0 mi Calm Calm - N/A   Clear
11:55 PM 50.0 °F 46.4 °F 87% 30.05 in 10.0 mi Calm Calm - N/A   Clear